Location: *
(47.9025°N, 1.9090°E)
Time: 06:15:39
(UTC+00:00)

Daily predictions for brighter satellites

Satellite Brightness Start Highest point End
(mag) Time Altitude Azimuth Time Altitude Azimuth Time Altitude Azimuth
Cosmos 2251 Rocket 3.9 18:56:58 10° SSW 19:02:21 77° WNW 19:07:46 10° NNE
Cosmos 2154 Rocket 4.4 18:57:55 10° N 19:03:59 45° ENE 19:10:01 10° SE
CZ-2C R/B 3.0 18:59:38 10° SSE 19:04:22 57° ENE 19:09:02 10° N
HJ-1C 3.8 19:01:54 10° S 19:05:14 67° WSW 19:08:37 10° NNW
Cosmos 2369 Rocket 3.1 18:59:48 10° NW 19:05:19 52° WSW 19:10:45 10° S
Meteor 1-21 Rocket 4.4 19:00:58 10° NNW 19:06:32 79° W 19:12:04 10° S
Cosmos 1758 Rocket 3.5 19:02:14 10° N 19:06:35 76° E 19:10:53 10° SSE
USA 186 2.0 19:04:26 10° SSE 19:07:38 51° ENE 19:10:42 10° N
Ariane Rocket 3.0 19:05:34 10° SSE 19:10:39 83° ENE 19:15:44 10° NNW
Cosmos 1140 Rocket 4.3 19:06:48 10° SSE 19:11:13 29° E 19:15:38 10° NE
SL-4 R/B 1.5 19:08:49 10° WSW 19:12:13 74° SSE 19:15:38 10° ENE
SJ-11-01 4.5 19:08:01 10° SSE 19:12:44 81° WSW 19:17:30 10° NNW
Cosmos 1953 Rocket 3.8 19:10:15 10° N 19:14:40 53° ENE 19:19:03 10° SSE
STARLINK-1246 4.5 19:11:13 10° WNW 19:15:11 43° N 19:19:10 10° E
STARLINK-1234 3.1 19:12:21 10° WNW 19:15:18 56° NNE 19:18:03 11° E
Cosmos 1703 3.4 19:11:39 10° N 19:15:35 58° ENE 19:19:29 10° SSE
Cosmos 1606 Rocket 3.7 19:11:27 10° S 19:15:47 57° E 19:20:12 10° NNE
STARLINK-1209 3.0 19:12:58 10° WNW 19:15:55 59° NNE 19:18:37 12° ESE
Cosmos 1340 Rocket 3.7 19:13:38 10° SSE 19:17:10 29° E 19:20:42 10° NNE
IRIDIUM 104 4.4 19:13:54 10° N 19:19:10 89° W 19:24:23 10° S
STARLINK-1203 4.4 19:15:07 10° WNW 19:19:11 46° N 19:23:14 10° E
Cosmos 1328 3.8 19:15:17 10° N 19:19:16 62° ENE 19:23:14 10° SSE
STARLINK-1233 3.4 19:16:18 10° WNW 19:19:24 51° NNE 19:22:13 12° E
STARLINK-1212 3.4 19:16:45 10° WNW 19:19:50 51° NNE 19:22:37 12° E
STARLINK-1224 4.4 19:16:13 10° WNW 19:20:13 44° N 19:24:12 10° E
STARLINK-1105 3.4 19:17:12 10° WNW 19:20:17 51° NNE 19:23:04 12° E
STARLINK-1206 3.4 19:17:42 10° WNW 19:20:45 51° NNE 19:23:29 12° E
MOS 1 4.3 19:15:17 10° SSE 19:20:56 79° ENE 19:26:37 10° NNW
Cosmos 614 Rocket 4.1 19:16:06 10° S 19:21:11 57° ESE 19:26:18 10° NNE
STARLINK-1247 3.4 19:18:08 10° WNW 19:21:13 51° NNE 19:23:55 12° E
Cosmos 1190 Rocket 4.4 19:16:22 10° S 19:21:17 41° ESE 19:26:14 10° NE
STARLINK-1227 3.4 19:18:33 10° WNW 19:21:38 52° NNE 19:24:22 13° E
STARLINK-1218 3.3 19:19:02 10° WNW 19:22:06 52° NNE 19:24:47 13° E
STARLINK-1226 3.3 19:19:28 10° WNW 19:22:32 52° NNE 19:25:13 13° E
STARLINK-1254 3.3 19:19:54 10° WNW 19:23:00 53° NNE 19:25:40 13° E
STARLINK-1215 3.3 19:20:24 10° WNW 19:23:29 53° NNE 19:26:06 13° E
Cosmos 1908 3.3 19:19:58 10° S 19:23:44 53° E 19:27:32 10° NNE
ERBS 3.9 19:21:00 10° NW 19:23:53 25° NNE 19:26:45 10° ENE
STARLINK-1231 3.3 19:20:50 10° WNW 19:23:55 53° NNE 19:26:31 13° E
Cosmos 2074 Rocket 4.1 19:18:07 10° N 19:24:27 87° W 19:30:45 10° S
STARLINK-1232 3.3 19:21:45 10° WNW 19:24:50 54° NNE 19:27:24 14° E
STARLINK-1225 4.4 19:21:14 10° WNW 19:25:14 45° NNE 19:29:09 10° E
STARLINK-1217 3.3 19:22:10 10° WNW 19:25:15 54° NNE 19:27:49 14° E
STARLINK-1208 3.3 19:22:37 10° WNW 19:25:43 55° NNE 19:28:17 14° E
STARLINK-1229 3.3 19:23:06 10° WNW 19:26:11 55° NNE 19:28:41 14° E
STARLINK-1271 3.3 19:23:32 10° WNW 19:26:37 55° NNE 19:29:07 14° E
STARLINK-1270 3.2 19:24:00 10° WNW 19:27:05 55° NNE 19:29:33 15° E
STARLINK-1154 3.2 19:24:26 10° WNW 19:27:31 56° NNE 19:29:59 15° E
APEX 4.3 19:21:33 10° NNW 19:28:11 84° ENE 19:33:32 10° SSE
STARLINK-1197 3.2 19:25:22 10° WNW 19:28:26 56° NNE 19:30:52 15° E
STARLINK-1189 3.2 19:25:47 10° WNW 19:28:53 57° NNE 19:31:17 15° E
STARLINK-1198 3.2 19:26:15 10° WNW 19:29:22 57° NNE 19:31:44 15° E
Cosmos 1726 2.6 19:25:42 10° SSW 19:29:24 64° W 19:33:07 10° N
STARLINK-1188 3.2 19:26:40 10° WNW 19:29:46 57° NNE 19:32:08 16° E
STARLINK-1230 4.3 19:26:12 10° WNW 19:30:13 46° NNE 19:33:55 12° E
STARLINK-1235 3.0 19:27:21 10° WNW 19:30:30 69° NNE 19:32:51 16° ESE
STARLINK-1187 3.1 19:27:46 10° WNW 19:30:55 63° NNE 19:33:16 16° ESE
STARLINK-67 2.4 19:29:03 10° WNW 19:31:36 70° SSW 19:33:19 18° SE
STARLINK-1199 3.2 19:28:37 10° WNW 19:31:45 59° NNE 19:34:04 16° E
Cosmos 1943 3.6 19:26:15 10° SW 19:31:53 69° WNW 19:37:36 10° NNE
STARLINK-1191 3.2 19:29:05 10° WNW 19:32:12 59° NNE 19:34:30 17° E
SL-24 R/B 4.2 19:28:30 10° NNE 19:32:19 40° E 19:35:50 10° SSE
STARLINK-1210 3.2 19:29:32 10° WNW 19:32:39 60° NNE 19:34:56 17° E
Cosmos 1656 Rocket 4.1 19:27:31 10° NNW 19:33:07 64° WSW 19:38:36 10° SSE
STARLINK-1221 3.1 19:30:00 10° WNW 19:33:08 60° NNE 19:35:23 17° E
STARLINK-1219 3.1 19:30:26 10° WNW 19:33:34 60° NNE 19:35:49 17° E
STARLINK-1222 3.1 19:30:53 10° WNW 19:34:01 61° NNE 19:36:15 17° E
STARLINK-1211 3.1 19:31:22 10° WNW 19:34:29 61° NNE 19:36:41 18° E
Abrixas rocket 1.9 19:31:53 10° W 19:34:50 80° SSW 19:36:49 19° ESE
STARLINK-1214 3.1 19:31:47 10° WNW 19:34:55 62° NNE 19:37:06 18° E
STARLINK-1243 4.3 19:31:11 10° WNW 19:35:12 48° NNE 19:38:42 13° E
STARLINK-1245 3.1 19:32:17 10° WNW 19:35:23 62° NNE 19:37:32 18° E
STARLINK-1238 3.1 19:32:42 10° WNW 19:35:50 62° NNE 19:37:59 18° ESE
BREEZE-M DEB (TANK) 3.6 19:29:43 10° WNW 19:36:32 77° SSW 19:38:39 18° ESE
STARLINK-1205 3.1 19:33:38 10° WNW 19:36:45 63° NNE 19:38:51 19° ESE
STARLINK-29 3.5 19:33:55 10° SSW 19:36:55 38° SE 19:39:26 13° ENE
STARLINK-1204 3.1 19:34:05 10° WNW 19:37:12 63° NNE 19:39:16 19° ESE
STARLINK-1236 4.2 19:36:10 10° WNW 19:40:12 49° NNE 19:43:28 15° E
MetOp-A 4.2 19:35:23 10° SSE 19:40:40 64° ENE 19:45:59 10° N
Cosmos 1610 Rocket 4.4 19:35:08 10° N 19:41:21 84° E 19:47:29 10° S
STARLINK-60 2.9 19:38:32 10° WSW 19:41:49 83° SSE 19:45:06 10° ENE
CZ-2C R/B 3.0 19:37:53 10° NNE 19:42:42 38° E 19:47:31 10° SSE
Cosmos 1953 4.2 19:40:12 10° SW 19:43:50 34° WNW 19:47:32 10° N
Cosmos 407 Rocket 3.4 19:42:41 10° SSW 19:47:49 79° ESE 19:52:58 10° NNE
ARGOS 3.6 19:43:49 10° S 19:49:10 66° WSW 19:54:32 10° NNW
STARLINK-1269 4.1 19:46:07 10° WNW 19:50:12 53° NNE 19:53:02 18° E
Cosmos 676 Rocket 4.3 19:45:17 10° S 19:50:16 44° ESE 19:55:14 10° NE
Meteor 1-11 4.3 19:44:41 10° NNW 19:50:29 87° W 19:56:09 10° S
Cosmos 1295 Rocket 4.5 19:47:55 10° N 19:54:15 79° E 20:00:35 10° SSE
STARLINK-1200 4.1 19:51:06 10° WNW 19:55:11 55° NNE 19:57:48 21° E
SL-24 R/B - RUBIN 2 4.3 19:52:14 10° SSW 19:57:53 84° SE 20:04:17 10° NE
CZ-2C R/B 3.7 19:54:09 10° NNE 19:58:53 79° ESE 20:03:30 10° S
SPOT 3 Rocket 3.6 19:54:16 10° SSE 19:59:29 86° WSW 20:04:43 10° NNW
STARLINK-1192 4.0 19:56:05 10° WNW 20:00:12 57° NNE 20:02:36 23° E
Resurs 1-3 3.5 19:58:05 13° SSE 20:01:57 84° ENE 20:06:22 10° NNW
STARLINK-1201 2.9 20:01:50 10° WNW 20:05:08 89° SSW 20:06:17 37° ESE
STARLINK-1244 3.9 20:01:04 10° WNW 20:05:11 60° NNE 20:07:23 26° E
COSMOS 2455 2.8 19:59:08 10° NW 20:05:12 90° WSW 20:09:32 20° SSE
STARLINK-1228 2.9 20:03:54 10° WNW 20:06:37 53° SSW 20:07:12 42° SSE
SL-08 RB Rocket 4.4 20:04:12 10° S 20:08:39 53° W 20:13:12 10° NNW
Cosmos 1023 Rocket 4.4 20:04:46 10° SSW 20:09:57 89° WNW 20:15:07 10° NNE
STARLINK-1138 3.9 20:06:03 10° WNW 20:10:11 62° NNE 20:12:10 28° E
MOS 1 Rocket 3.6 20:06:40 10° NNE 20:12:05 73° E 20:17:31 10° S
Cosmos 1954 Rocket 3.9 20:07:22 10° S 20:12:32 64° ESE 20:17:42 10° NNE
FALCON 9 DEB 3.0 20:09:10 10° SW 20:12:39 69° SSE 20:14:16 29° ENE
Cosmos 1980 Rocket 4.1 20:10:49 10° N 20:14:21 17° NE 20:17:17 12° ENE
STARLINK-1143 3.8 20:11:01 10° WNW 20:15:10 65° NNE 20:16:57 32° E
Cosmos 1892 3.6 20:13:13 10° N 20:16:43 31° ENE 20:17:06 30° E
STARLINK-52 2.8 20:14:07 10° SW 20:17:18 72° SSE 20:18:09 45° E
ATLAS CENTAUR R/B 3.3 20:15:23 10° N 20:17:56 16° NNE 20:19:27 14° ENE
Cosmos 2058 Rocket 3.5 20:13:36 10° SSW 20:18:05 65° WNW 20:22:34 10° N
STARLINK-1241 3.7 20:16:02 10° WNW 20:20:11 69° NNE 20:21:46 36° E
BREEZE M DEB (TANK) 3.2 20:17:28 10° SW 20:20:44 47° SE 20:29:38 10° ENE
SPOT 1/Viking Rocket 4.3 20:21:21 29° ESE 20:23:10 37° ENE 20:27:57 10° N
Cosmos 2341 Rocket 4.1 20:17:04 10° N 20:23:30 87° W 20:29:06 14° S
ATLAS 5 CENTAUR R/B 1.8 20:19:30 10° SW 20:23:40 69° NW 20:28:26 10° NE
Cosmos 1825 4.2 20:21:27 10° NNE 20:23:21 16° ENE 20:23:21 16° ENE
CZ-4C R/B 3.9 20:18:06 10° NW 20:24:06 33° NNE 20:29:18 16° E
STARLINK-1239 3.7 20:21:00 10° WNW 20:25:09 72° NNE 20:26:31 40° E
Cosmos 1763 Rocket 3.9 20:24:19 10° NNW 20:29:20 47° ENE 20:30:58 35° ESE
STARLINK-1240 3.6 20:25:59 10° WNW 20:30:08 76° NNE 20:31:18 45° E
Cosmos 921 Rocket 3.9 20:27:25 10° NNW 20:31:25 43° WSW 20:34:07 19° SSW
Resurs 01 Rocket 1.9 20:31:53 24° S 20:34:30 66° WSW 20:38:55 10° NNW
STARLINK-1216 3.6 20:30:58 10° WNW 20:35:08 80° NNE 20:36:05 51° ESE
H-2A R/B 4.3 20:31:19 10° SW 20:35:18 22° W 20:39:15 10° NW
Cosmos 2218 Rocket 3.9 20:30:00 10° N 20:36:14 75° E 20:39:41 29° SSE
Cosmos 1300 3.0 20:35:18 16° SSW 20:38:18 64° WNW 20:42:07 10° N
STARLINK-1237 3.5 20:35:56 10° WNW 20:40:05 85° NNE 20:40:51 58° ESE
Cosmos 1174 4.1 20:36:00 10° NNW 20:40:07 76° NE 20:41:25 48° SE
Iridium 4 Rocket 2.9 20:37:17 10° N 20:41:27 60° E 20:41:55 56° ESE
Landsat 7 3.9 20:42:03 46° ESE 20:43:09 58° ENE 20:47:51 10° N
USA 234 3.4 20:37:22 10° ENE 20:43:39 47° SE 20:49:55 10° SSW
In-Cosmos 22 Rocket 4.2 20:38:49 10° NNW 20:44:43 89° E 20:47:33 32° S
STARLINK-1202 3.5 20:40:57 10° WNW 20:45:06 90° NNE 20:45:40 66° ESE
SAR-Lupe-2 3.4 20:42:20 10° NNE 20:45:56 87° ESE 20:46:11 77° S
Cosmos 2082 Rocket 4.4 20:49:07 10° ENE 20:49:07 10° ENE 20:49:15 10° ENE
Cosmos 1812 Rocket 3.4 20:46:09 49° S 20:47:15 78° E 20:51:36 10° NNE
Cosmos 220 Rocket 4.0 20:43:08 10° NNW 20:47:28 76° WSW 20:48:32 50° S
USA 245 4.4 20:46:41 36° SSE 20:49:19 82° ENE 20:55:47 10° NNW
ATLAS 2AS CENTAUR R/B 4.2 20:44:05 10° NW 20:50:25 31° WSW 20:55:53 12° SSW
SL-8 Rocket 4.1 20:44:10 10° NNW 20:50:29 76° W 20:54:31 24° S
RESURS DK-1 3.0 20:47:41 10° NNW 20:51:40 42° NE 20:51:45 42° ENE
SL-4 R/B 2.4 20:48:37 10° W 20:51:55 45° N 20:52:28 41° NNE
Cosmos 864 Rocket 4.4 20:46:19 10° N 20:52:34 88° E 20:55:29 34° S
Cosmos 2181 Rocket 4.0 20:46:56 10° S 20:53:12 82° W 20:59:25 10° N
Cosmos 2058 2.8 20:49:20 10° N 20:53:28 83° W 20:54:05 63° S
Cosmos 1833 Rocket 4.0 20:56:29 23° ENE 20:56:29 23° ENE 20:59:13 10° NE
STARLINK-1246 3.4 20:50:52 10° WNW 20:55:02 81° SSW 20:55:12 78° S
MetOp-B 4.2 20:53:18 34° S 20:55:42 74° WSW 21:01:05 10° NNW
USA 32 4.1 20:53:01 10° N 20:58:11 55° E 20:58:49 52° ESE
Meteor 2-10 Rocket 3.9 20:58:38 45° E 20:58:38 45° E 21:03:44 10° NNE
Cosmos 2151 3.4 20:55:04 10° N 20:58:42 45° NE 20:58:42 45° NE
STARLINK-1203 3.6 20:55:00 10° WNW 20:59:12 72° SSW 20:59:15 72° SSW
STARLINK-1224 3.5 20:55:53 10° WNW 21:00:01 76° SSW 21:00:01 76° SSW
ERBS 3.0 20:57:07 10° NW 20:59:49 53° WNW 20:59:49 53° WNW
Spot 2 Rocket 3.6 20:59:40 42° S 21:01:24 74° WSW 21:06:32 10° NNW
BREEZE-M DEB (TANK) 3.5 21:00:30 10° W 21:02:12 27° WNW 21:02:12 27° WNW
Cosmos 1850 Rocket 3.8 21:02:16 50° S 21:03:34 72° ESE 21:08:44 10° NNE
Cosmos 2366 rocket 4.0 20:57:51 10° NNW 21:04:01 75° W 21:06:59 32° S
STARLINK-1225 3.7 21:00:52 10° WNW 21:04:48 69° WSW 21:04:48 69° WSW
Cosmos 841 Rocket 3.7 21:02:27 10° NNW 21:07:39 55° ENE 21:08:12 53° E
COSMOS 2406 3.2 21:08:16 57° SE 21:08:51 60° ESE 21:14:28 10° NNE
STARLINK-1230 3.9 21:05:51 10° WNW 21:09:34 62° WSW 21:09:34 62° WSW
Cosmos 1076 Rocket 4.0 21:06:06 10° NNW 21:10:18 54° W 21:11:04 47° SW
Cosmos 1408 3.4 21:09:06 10° N 21:11:46 45° N 21:11:46 45° N
STARLINK-1243 4.1 21:10:49 10° WNW 21:14:20 54° WSW 21:14:20 54° WSW
Nadezhda 3 Rocket 4.1 21:15:55 52° ESE 21:16:35 55° E 21:22:41 10° NNE
Cosmos 468 Rocket 4.3 21:14:19 10° NNW 21:19:23 59° WSW 21:20:19 50° SSW
STARLINK-1236 4.3 21:15:48 10° WNW 21:19:07 48° WSW 21:19:07 48° WSW
SPOT 5 2.8 21:22:33 64° NNE 21:22:33 64° NNE 21:26:22 10° N
CZ-2C R/B 4.2 21:18:21 10° N 21:22:57 33° WNW 21:27:33 10° SW
Terra 2.1 21:25:36 57° NE 21:25:36 57° NE 21:29:56 10° N
Cosmos 2369 3.6 21:21:13 10° NNW 21:26:53 68° ENE 21:27:19 65° E
ERS-1 Rocket 2.8 21:27:10 78° SSW 21:27:27 84° WSW 21:32:32 10° NNW
Cosmos 1570 Rocket 3.9 21:22:41 10° NNW 21:28:05 86° WSW 21:28:26 79° S
Cosmos 1697 Rocket 2.6 21:24:01 10° NNW 21:29:43 73° ENE 21:30:07 69° E
Cosmos-2242 3.5 21:33:27 55° N 21:33:27 55° N 21:36:55 10° N
Cosmos 489 Rocket 4.4 21:30:37 10° NNW 21:36:49 76° WSW 21:37:49 62° S
Cosmos 2239 Rocket 4.3 21:34:03 10° N 21:40:20 78° E 21:40:56 71° SE
Cosmos 1821 Rocket 3.9 21:38:39 10° N 21:45:04 86° W 21:45:57 69° S
Cosmos 1455 3.8 21:48:16 34° NNW 21:48:16 34° NNW 21:50:44 10° N
Cosmos 1356 Rocket 4.4 21:48:19 47° NW 21:48:19 47° NW 21:51:50 10° N
Cosmos 1934 Rocket 4.0 21:41:44 10° N 21:47:58 64° ENE 21:48:02 64° E
SL-16 R/B 3.7 21:44:52 10° N 21:49:27 24° NE 21:50:12 24° ENE
Cosmos 2360 Rocket 4.4 21:47:56 10° N 21:50:57 14° NE 21:53:00 12° ENE
Cosmos 1656 4.2 21:46:49 10° NW 21:52:15 47° WSW 21:52:35 47° WSW
Cosmos 2322 Rocket 3.8 21:52:38 10° N 21:57:06 23° NE 21:57:48 23° NE
ATLAS CENTAUR R/B 3.1 21:53:36 10° NW 21:55:38 29° NW 21:55:38 29° NW
Mayak 0.8 21:54:57 10° NNE 21:56:22 20° NNE 21:56:22 20° NNE
Cosmos 1980 Rocket 2.3 21:53:50 10° NNW 21:59:03 66° NNE 21:59:03 66° NNE
Cosmos 1825 4.1 21:56:01 10° NNW 21:58:10 29° NW 21:58:10 29° NW
Meteor 2-3 Rocket 3.7 21:57:49 10° N 22:03:11 77° N 22:03:11 77° N
Cosmos 1605 Rocket 4.2 21:58:19 10° N 22:03:58 56° ENE 22:03:58 56° ENE
ATLAS 5 CENTAUR R/B 4.3 22:05:56 10° WNW 22:09:16 20° NNW 22:12:57 10° NNE
CZ-4C R/B 2.8 22:06:27 10° NW 22:13:35 85° NE 22:14:28 73° SE
Cosmos 540 Rocket 4.4 22:12:36 10° NNW 22:16:44 42° W 22:16:44 42° W
USA 234 3.4 22:20:22 10° NE 22:26:52 69° NNW 22:33:22 10° WSW
Cosmos 2278 4.2 22:22:59 10° NNW 22:27:38 53° WNW 22:27:38 53° WNW
Cosmos 2082 Rocket 2.8 22:30:55 49° NNE 22:30:55 49° NNE 22:35:00 10° NNE
ASTEX 1 4.5 22:37:03 41° NW 22:37:03 41° NW 22:40:41 10° NNW
Cosmos 1833 Rocket 3.3 22:38:06 52° NW 22:38:06 52° NW 22:43:36 10° NNE
Cosmos 2344 4.3 22:35:58 10° NW 22:45:33 85° SW 22:48:33 58° SSE
Terra 4.1 23:04:29 17° WNW 23:04:29 17° WNW 23:06:41 10° NW
Cosmos 1459 Rocket 4.4 23:07:42 10° N 23:12:56 58° NNE 23:12:56 58° NNE
Cosmos 1727 Rocket 4.4 23:24:37 59° NNW 23:24:37 59° NNW 23:29:55 10° N
Cosmos 2016 Rocket 4.5 23:26:26 10° N 23:31:34 56° NNE 23:31:34 56° NNE
SL-16 R/B 3.3 23:28:28 10° NNW 23:32:03 40° NW 23:32:03 40° NW
Mayak 1.5 23:31:29 10° NNW 23:32:57 15° NW 23:32:57 15° NW
Cosmos 2360 Rocket 3.2 23:30:43 10° NNW 23:34:46 43° N 23:34:46 43° N
Cosmos 1802 Rocket 4.5 23:30:41 10° N 23:35:30 56° N 23:35:30 56° N
Cosmos 2322 Rocket 3.3 23:36:09 10° NNW 23:39:37 39° NW 23:39:37 39° NW
Cosmos 1980 Rocket 4.3 23:38:49 10° NW 23:40:49 17° WNW 23:40:49 17° WNW
MOS 1-B Rocket 4.5 23:38:16 10° NNE 23:43:26 62° NE 23:43:26 62° NE
